Temp
18 19 19 19 20 20 21 21 21 22 22 23 23 24 24 25 25 25 26 26 25 26 26 26 27 29 29 31 31 32 34 34 34 34 35 35 35 32 31 30 30 29 29 28 24
18 18 19 19 20 20 21 21 21 22 22 23 24 24 25 26 26 26 25 26 26 26 25 27 29 30 31 33 33 34 35 34 35 35 35 34 34 34 33 31 29 28 27 26 24
18 18 19 19 20 20 21 21 22 22 23 24 24 24 25 25 25 26 26 26 26 26 25 28 29 30 33 33 34 35 35 35 35 33 34 35 35 34 34 34 31 29 27 26 25
18 18 19 19 20 20 21 21 22 22 23 24 24 25 26 26 30 26 26 26 26 25 26 28 29 31 33 34 33 34 34 34 34 34 34 35 34 34 34 33 31 30 27 26 25
18 18 19 19 20 20 21 22 22 22 23 24 24 25 26 27 27 26 26 26 25 25 28 29 31 32 33 34 33 34 34 33 34 34 33 33 34 34 34 32 30 29 28 27 26
17 18 19 19 20 20 21 21 22 23 23 24 24 24 24 29 25 26 24 25 26 27 28 29 31 31 32 33 33 33 33 34 34 34 34 33 34 34 32 31 30 29 28 27 27
17 18 18 19 20 20 21 22 22 23 23 24 24 24 24 28 25 24 24 26 26 28 29 28 29 30 32 33 32 33 33 35 35 34 35 34 34 34 32 31 30 29 28 28 27
16 17 18 19 19 20 21 22 22 23 23 23 24 24 27 26 25 25 26 26 26 27 28 28 28 30 31 32 32 33 34 34 36 35 34 34 33 34 32 32 30 29 28 28 26
16 17 18 18 19 20 21 21 22 23 23 23 23 23 29 26 25 26 26 27 27 27 27 27 28 31 32 33 34 34 34 34 35 34 34 34 34 33 33 32 30 29 28 27 26
16 17 17 18 19 20 21 21 22 23 22 23 23 24 26 28 27 26 26 27 28 28 28 28 30 33 34 34 33 34 34 35 33 34 34 34 34 35 33 32 31 29 27 26 25
16 17 17 18 19 20 21 21 21 21 21 27 28 28 28 27 25 26 26 27 28 29 31 30 32 32 34 34 33 33 33 33 34 34 33 34 34 35 33 33 32 30 27 26 26
15 16 17 18 19 20 20 22 21 20 25 27 27 27 26 27 28 28 27 28 29 30 31 31 31 34 33 32 32 33 32 33 34 34 33 34 34 35 35 33 33 31 29 27 26
15 16 17 18 19 19 19 21 19 20 25 29 27 27 27 27 29 29 27 29 30 31 32 32 33 32 31 32 31 33 33 33 33 33 34 33 33 34 35 33 32 31 31 28 28
14 15 16 18 19 18 20 19 19 20 26 29 28 28 28 28 29 29 28 30 31 31 32 32 33 31 31 31 32 32 34 33 32 32 33 34 32 33 34 34 33 31 30 30 28
14 15 16 16 18 19 19 19 19 20 26 31 29 27 28 29 31 29 28 29 31 31 31 32 31 31 31 32 32 33 33 32 32 32 33 33 33 34 34 33 34 33 31 30 28
14 15 15 16 17 18 18 19 19 25 26 29 29 29 29 29 30 30 29 29 30 31 31 32 31 32 32 32 32 33 32 32 32 33 32 33 33 33 34 33 34 33 31 30 28
14 15 15 16 18 17 18 20 24 26 30 29 29 30 30 30 31 29 30 29 30 28 29 31 31 32 32 31 32 32 31 31 31 32 32 33 32 33 34 34 33 32 31 30 28
15 15 16 16 15 16 18 23 24 29 30 30 30 31 30 31 31 30 30 29 31 31 32 30 30 32 32 32 32 31 32 31 30 31 31 32 31 32 34 33 32 31 30 29 28
15 14 14 15 16 16 20 23 26 29 29 28 29 29 30 31 31 30 30 31 31 32 30 31 31 32 32 33 32 32 31 33 31 32 32 33 34 34 34 34 33 31 30 29 28
15 16 17 15 15 16 22 23 28 27 26 27 28 29 29 30 29 30 30 32 32 32 32 32 30 32 32 32 32 32 33 31 32 29 29 32 32 32 32 33 32 30 30 28 28
15 18 16 15 16 19 23 25 27 25 25 26 28 28 29 30 30 31 31 31 32 32 32 32 30 31 31 30 31 31 31 31 33 32 30 30 29 26 32 33 33 31 29 27 27
15 21 16 16 20 22 24 26 24 26 24 27 26 28 28 28 29 30 31 31 31 32 31 32 31 30 31 33 33 33 32 32 31 30 32 31 32 33 34 33 32 31 28 27 27
17 19 16 17 22 24 25 26 25 26 26 27 27 27 27 28 27 29 30 30 29 31 31 31 30 29 29 32 32 31 32 32 32 31 30 29 31 26 33 32 31 31 28 26 26
16 21 19 18 21 21 24 23 24 24 25 26 27 26 27 27 27 28 29 29 28 30 26 28 30 29 30 28 31 30 31 32 31 30 31 32 32 32 33 33 30 30 26 25 24
17 20 18 21 22 22 23 23 24 23 23 24 25 25 26 26 27 26 29 29 28 26 28 29 28 30 30 31 32 32 32 32 31 31 30 31 27 26 30 30 30 29 25 25 24
15 17 18 20 18 20 18 22 22 24 24 24 24 26 26 25 26 26 28 28 28 29 29 29 27 28 30 31 31 31 31 31 32 31 31 32 31 33 31 29 30 28 25 25 24
12 13 14 18 19 21 22 22 22 23 23 23 24 25 24 25 25 24 24 24 25 26 27 28 28 27 27 30 31 29 31 31 32 32 32 31 31 31 31 29 28 28 26 25 24
Height
1530 1529 1528 1527 1526 1525 1523 1522 1521 1520 1518 1516 1513 1512 1511 1509 1508 1507 1510 1509 1508 1507 1506 1509 1508 1508 1506 1501 1497 1490 1483 1491 1491 1491 1490 1491 1491 1501 1505 1509 1511 1513 1514 1519 1526
1530 1530 1528 1527 1525 1524 1523 1522 1520 1519 1518 1515 1514 1512 1510 1508 1507 1510 1509 1507 1506 1506 1508 1510 1509 1507 1502 1498 1494 1489 1479 1488 1491 1493 1493 1493 1496 1497 1499 1506 1513 1516 1519 1523 1527
1531 1530 1528 1527 1525 1524 1523 1522 1521 1519 1517 1515 1514 1513 1510 1508 1508 1509 1507 1507 1506 1507 1509 1511 1510 1506 1498 1496 1493 1484 1482 1490 1494 1498 1496 1492 1491 1496 1494 1493 1503 1512 1520 1524 1527
1531 1529 1528 1527 1526 1525 1522 1522 1520 1519 1517 1515 1514 1512 1510 1509 1504 1508 1507 1508 1508 1507 1511 1512 1509 1505 1496 1496 1498 1492 1495 1497 1495 1498 1497 1495 1494 1493 1497 1497 1505 1510 1518 1522 1526
1530 1529 1528 1526 1525 1524 1522 1520 1518 1518 1516 1515 1514 1512 1511 1510 1510 1509 1508 1508 1509 1511 1512 1511 1508 1504 1498 1498 1501 1496 1497 1499 1498 1497 1498 1498 1495 1495 1497 1501 1507 1511 1516 1521 1524
1530 1528 1527 1525 1525 1522 1521 1519 1517 1517 1516 1514 1513 1512 1512 1510 1511 1509 1510 1509 1512 1512 1513 1511 1508 1508 1502 1502 1501 1498 1500 1498 1496 1495 1496 1497 1491 1495 1500 1504 1507 1512 1516 1519 1522
1529 1528 1526 1524 1523 1522 1520 1518 1517 1516 1515 1513 1513 1512 1512 1511 1511 1510 1511 1514 1512 1514 1514 1513 1512 1511 1505 1502 1503 1502 1500 1491 1491 1492 1491 1493 1490 1490 1499 1502 1507 1511 1514 1517 1522
1528 1527 1525 1523 1522 1520 1518 1517 1516 1515 1514 1513 1513 1513 1510 1508 1511 1510 1512 1514 1513 1514 1514 1513 1513 1510 1508 1504 1503 1499 1493 1495 1482 1491 1490 1490 1496 1493 1498 1499 1506 1510 1513 1517 1522
1526 1525 1523 1523 1521 1519 1517 1516 1514 1514 1513 1512 1514 1513 1506 1507 1509 1511 1512 1514 1513 1515 1514 1513 1513 1507 1504 1503 1497 1490 1497 1489 1486 1491 1491 1491 1490 1492 1495 1498 1505 1509 1513 1517 1521
1524 1523 1522 1521 1519 1518 1516 1515 1514 1513 1512 1512 1512 1514 1507 1506 1508 1510 1511 1513 1513 1514 1514 1513 1508 1502 1497 1493 1502 1489 1489 1485 1495 1488 1490 1488 1487 1485 1494 1496 1501 1507 1512 1516 1519
1523 1521 1520 1519 1518 1517 1516 1515 1515 1512 1511 1504 1504 1502 1505 1506 1508 1509 1511 1512 1513 1513 1507 1508 1503 1500 1488 1487 1490 1493 1494 1495 1488 1487 1496 1487 1490 1485 1489 1493 1496 1502 1509 1513 1517
1521 1520 1518 1517 1516 1516 1516 1517 1515 1517 1509 1502 1503 1504 1505 1505 1504 1507 1509 1511 1510 1506 1503 1505 1504 1488 1495 1499 1499 1496 1498 1494 1486 1489 1494 1488 1486 1481 1483 1489 1491 1498 1505 1510 1514
1519 1518 1517 1516 1515 1516 1517 1517 1515 1515 1510 1493 1498 1500 1502 1505 1499 1501 1506 1506 1504 1503 1499 1499 1492 1498 1502 1500 1502 1496 1496 1490 1496 1487 1485 1486 1488 1481 1479 1487 1492 1494 1497 1505 1509
1518 1516 1515 1514 1517 1515 1517 1516 1516 1515 1504 1486 1492 1493 1497 1500 1498 1497 1501 1503 1500 1497 1494 1495 1490 1499 1501 1500 1496 1498 1485 1493 1495 1496 1498 1481 1503 1479 1474 1479 1486 1492 1496 1499 1506
1516 1515 1514 1515 1513 1517 1517 1516 1515 1516 1510 1477 1486 1490 1492 1495 1486 1495 1499 1500 1497 1495 1496 1494 1496 1497 1501 1495 1494 1493 1491 1494 1493 1494 1490 1485 1494 1474 1472 1480 1477 1484 1492 1497 1503
1515 1513 1513 1513 1513 1515 1514 1516 1517 1514 1504 1479 1480 1484 1488 1490 1487 1490 1496 1499 1498 1495 1495 1490 1494 1493 1492 1493 1495 1491 1496 1493 1491 1489 1501 1482 1487 1484 1473 1479 1479 1484 1493 1495 1501
1513 1511 1511 1511 1514 1513 1514 1517 1511 1501 1471 1474 1477 1475 1478 1482 1484 1490 1491 1495 1496 1506 1501 1492 1490 1491 1492 1494 1493 1495 1497 1509 1508 1499 1496 1474 1489 1482 1471 1475 1482 1486 1490 1495 1500
1510 1508 1508 1508 1510 1511 1515 1512 1508 1474 1470 1471 1471 1471 1474 1472 1476 1483 1486 1491 1488 1486 1484 1494 1499 1485 1488 1491 1491 1495 1494 1502 1517 1502 1497 1479 1493 1481 1473 1477 1482 1489 1491 1494 1499
1508 1506 1507 1508 1507 1510 1514 1505 1488 1470 1469 1478 1476 1476 1474 1468 1471 1478 1480 1482 1479 1481 1493 1486 1488 1480 1485 1485 1489 1489 1497 1483 1494 1484 1491 1477 1466 1463 1468 1473 1478 1485 1491 1494 1499
1506 1507 1506 1504 1505 1510 1508 1494 1475 1480 1485 1482 1481 1470 1473 1472 1479 1475 1477 1472 1474 1476 1482 1478 1494 1478 1484 1487 1486 1485 1480 1498 1491 1517 1515 1480 1476 1476 1473 1471 1476 1487 1490 1495 1499
1504 1502 1501 1503 1506 1508 1496 1485 1479 1486 1490 1485 1475 1478 1471 1465 1470 1468 1469 1469 1469 1473 1480 1479 1488 1482 1484 1489 1483 1487 1492 1487 1478 1479 1501 1501 1496 1480 1472 1472 1473 1482 1490 1496 1499
1505 1496 1501 1503 1504 1496 1487 1481 1481 1484 1491 1485 1484 1476 1476 1475 1475 1468 1469 1467 1473 1473 1480 1478 1481 1492 1483 1468 1472 1472 1476 1479 1491 1497 1481 1481 1480 1463 1464 1470 1472 1479 1490 1495 1499
1502 1497 1501 1502 1491 1482 1483 1479 1483 1487 1485 1484 1482 1484 1482 1480 1482 1474 1468 1474 1481 1478 1476 1476 1486 1497 1492 1474 1474 1481 1475 1476 1476 1480 1489 1493 1478 1466 1465 1471 1474 1479 1490 1496 1500
1506 1493 1498 1500 1490 1488 1480 1487 1487 1488 1486 1484 1483 1486 1484 1484 1482 1480 1477 1479 1484 1481 1483 1481 1481 1486 1483 1491 1474 1481 1478 1473 1478 1488 1483 1475 1467 1460 1457 1464 1475 1481 1491 1496 1500
1504 1493 1495 1487 1487 1487 1483 1484 1483 1486 1491 1491 1487 1487 1485 1486 1482 1486 1476 1477 1485 1486 1486 1485 1491 1480 1474 1469 1468 1467 1468 1469 1476 1476 1483 1469 1494 1479 1466 1473 1475 1482 1492 1496 1501
1510 1504 1499 1492 1496 1492 1489 1486 1486 1480 1484 1487 1488 1483 1484 1488 1485 1485 1478 1481 1479 1481 1482 1484 1491 1484 1477 1467 1467 1472 1468 1469 1466 1470 1469 1462 1468 1460 1469 1472 1477 1484 1492 1497 1501
1514 1511 1508 1494 1494 1491 1481 1485 1486 1484 1488 1488 1485 1483 1488 1488 1486 1489 1489 1491 1490 1489 1486 1484 1486 1487 1490 1470 1467 1482 1470 1466 1465 1463 1463 1472 1467 1466 1468 1475 1482 1486 1490 1495 1500
Wind_Speed
7 8 8 9 9 9 10 10 10 11 12 12 11 11 11 10 6 2 2 6 5 4 1 3 5 6 6 7 8 11 5 6 6 10 10 8 5 5 4 10 5 6 7 16 18
7 8 8 9 9 10 10 10 10 11 12 12 12 11 11 9 3 1 6 2 4 5 2 4 5 6 11 4 7 11 3 13 9 7 7 7 5 4 6 13 8 9 13 17 19
6 7 8 8 10 10 10 11 11 11 11 12 11 11 10 6 2 3 5 3 4 5 1 5 4 7 7 6 4 7 11 5 6 6 5 7 5 2 2 5 17 13 16 18 18
7 7 8 9 9 10 10 11 12 12 11 11 11 10 8 4 1 4 3 4 4 3 3 5 7 10 9 7 3 7 4 2 7 3 4 6 8 2 3 12 6 10 17 19 17
8 8 9 10 10 11 11 11 12 12 11 11 10 9 5 5 4 1 2 5 4 0 4 6 9 8 10 1 5 10 3 3 4 4 6 6 10 5 5 5 6 12 18 19 17
9 10 10 10 11 11 12 11 11 12 12 11 10 7 6 9 1 2 3 3 1 2 4 5 4 4 5 5 10 4 6 7 7 3 7 8 9 3 9 5 9 14 16 18 17
10 10 11 11 12 12 11 12 11 12 11 10 8 7 7 4 4 5 5 2 4 2 3 2 3 9 1 10 4 10 10 13 12 3 8 11 12 6 8 6 11 13 15 17 16
11 12 11 12 12 12 12 12 11 10 10 8 7 4 7 8 5 7 6 3 3 4 3 4 5 9 8 5 11 13 15 13 10 3 4 12 10 8 6 10 12 13 15 17 16
11 12 12 12 12 11 11 11 11 10 9 6 4 3 5 3 7 9 8 4 5 5 4 4 6 12 8 12 13 14 14 14 7 2 4 7 5 9 3 7 13 12 15 16 16
11 12 12 12 11 10 10 10 10 10 9 6 6 5 9 6 11 11 9 7 6 7 6 8 9 11 11 10 9 5 11 5 5 6 4 11 5 9 5 8 13 12 14 16 17
11 11 12 11 11 9 7 7 7 4 10 12 1 5 3 6 8 11 11 9 7 11 12 10 10 12 12 3 11 9 8 8 5 3 9 11 4 10 6 7 10 12 14 16 17
11 11 10 10 9 7 2 4 4 5 10 15 15 10 6 7 8 13 14 12 11 12 13 6 12 1 4 6 7 8 9 11 6 1 9 12 9 10 5 6 6 12 15 15 16
11 10 9 8 7 4 5 4 4 6 9 12 14 18 13 11 12 18 18 17 11 13 11 15 10 6 6 9 10 11 11 7 9 2 12 12 15 15 11 7 6 8 12 15 16
11 10 8 4 1 4 3 5 6 4 6 14 11 11 18 13 12 11 19 14 10 11 11 10 6 5 9 12 10 14 7 8 8 10 10 1 10 11 10 9 12 9 10 13 15
12 10 7 5 5 3 3 3 4 2 6 14 12 10 14 18 12 16 19 15 11 9 7 6 6 10 11 10 5 4 1 6 9 11 13 10 6 4 8 4 8 4 8 11 14
12 11 6 4 7 8 4 4 2 7 10 9 10 13 16 22 10 16 19 17 11 9 10 15 3 6 11 9 8 5 8 11 11 12 12 13 6 7 6 10 6 9 2 9 15
12 10 8 7 4 5 4 5 7 10 6 11 12 17 19 14 17 13 19 18 12 11 13 14 13 9 8 9 10 9 11 9 10 11 9 8 4 8 8 5 4 5 4 9 14
12 9 8 10 8 6 6 9 11 13 8 4 3 12 18 17 18 17 16 17 20 14 10 11 14 18 12 15 9 12 14 11 13 9 3 7 3 3 6 3 5 3 3 10 15
10 5 4 5 9 9 12 11 11 9 5 6 9 11 15 15 11 16 18 18 18 18 12 8 6 4 1 11 14 14 12 15 17 17 12 12 7 9 7 3 8 7 7 11 13
6 5 6 7 8 9 10 18 11 3 4 7 9 7 14 13 12 16 17 18 18 18 16 2 6 9 10 9 11 17 6 10 9 14 15 13 3 5 8 2 16 9 9 11 13
1 7 5 5 9 14 13 19 18 5 5 5 11 6 12 12 15 15 12 4 15 16 16 14 6 8 7 11 13 8 12 12 16 10 10 8 4 15 5 4 7 10 11 12 13
5 5 3 8 11 17 13 20 3 6 10 8 6 8 6 5 8 12 17 9 10 10 16 16 8 11 12 7 5 8 12 15 10 13 10 11 7 19 8 8 3 12 13 14 15
6 3 3 10 8 11 17 14 4 14 11 10 9 6 3 6 5 9 6 13 5 8 6 11 8 10 13 10 12 11 13 12 10 11 14 13 2 7 8 8 5 12 15 15 14
6 5 6 12 16 9 14 11 12 9 13 10 7 2 7 8 5 6 7 6 5 11 6 4 11 11 13 2 14 13 14 14 13 11 12 15 17 15 6 11 10 12 15 17 16
5 2 6 6 12 12 9 8 16 11 15 11 9 11 10 8 10 7 12 9 10 4 7 8 12 13 17 17 9 11 10 14 13 14 17 9 4 22 16 5 6 11 15 17 18
8 6 2 7 4 8 7 12 11 13 7 10 14 13 10 10 11 9 10 9 10 12 12 11 8 14 16 16 10 13 12 14 10 14 14 19 12 6 11 13 8 10 15 16 17
7 6 7 4 10 10 10 13 13 12 8 12 9 12 9 5 8 8 10 6 6 7 8 8 10 10 14 17 15 14 13 14 14 14 15 11 6 15 10 11 7 5 13 16 17
Wind_Direction
12 12 4 1 3 358 1 356 351 348 347 352 355 354 349 346 343 39 29 232 238 230 253 220 239 248 250 254 238 255 242 102 61 50 84 97 98 99 78 117 83 70 73 130 151
2 355 356 349 351 348 347 345 344 343 341 347 350 348 348 353 32 253 291 249 226 166 115 193 214 214 223 204 219 256 226 58 39 45 29 91 2 89 207 118 128 112 118 137 148
349 345 342 341 337 337 337 334 337 336 342 341 344 345 344 351 269 37 19 65 139 150 189 217 218 235 229 225 209 304 76 110 90 38 13 339 168 122 9 178 137 154 149 151 154
333 334 330 328 327 324 329 327 329 330 336 336 338 341 344 339 9 329 37 74 102 138 203 212 208 219 219 204 196 267 58 359 44 357 328 342 334 291 49 66 78 148 159 160 162
324 324 322 320 319 317 320 323 323 324 331 330 330 338 346 276 71 310 48 85 98 129 201 210 214 241 238 205 224 263 101 257 259 286 330 320 274 343 322 72 115 143 160 167 167
317 317 316 314 313 313 313 314 318 319 324 324 324 330 329 265 91 251 147 100 193 142 195 207 245 254 320 257 263 51 270 273 272 299 257 284 291 191 114 111 136 152 165 173 170
313 310 311 310 309 309 309 308 311 314 318 320 319 324 278 296 178 185 175 206 191 190 193 201 226 232 24 238 241 262 258 243 225 283 290 303 246 151 102 135 136 157 173 174 173
309 307 307 306 307 307 306 303 306 309 310 317 314 315 286 240 196 194 186 204 189 197 222 230 259 269 251 313 257 241 241 259 145 261 125 286 107 109 157 153 145 165 173 171 177
306 305 305 302 302 302 301 300 302 301 298 306 337 271 248 291 196 196 182 210 193 196 227 242 253 252 221 243 243 219 253 210 115 122 329 280 342 124 165 154 144 168 170 174 180
304 302 301 301 298 298 295 298 296 288 276 276 252 253 224 225 184 181 194 181 186 194 219 235 236 235 215 231 258 275 203 196 263 170 235 260 266 133 158 175 160 171 176 181 189
303 299 298 296 295 293 294 311 287 228 224 237 8 247 165 177 176 187 193 185 207 209 229 208 243 222 233 310 352 319 304 301 292 111 263 275 286 282 136 199 166 175 183 193 197
306 302 296 292 289 282 280 282 359 329 296 238 239 235 215 206 189 193 184 195 199 218 223 193 233 296 47 284 268 258 261 252 237 67 260 274 287 295 153 228 208 188 182 203 194
310 305 299 289 289 270 247 271 317 326 259 224 222 224 208 210 222 189 191 211 200 221 198 254 74 74 228 226 250 242 261 270 277 225 253 254 259 242 182 182 210 230 202 197 205
314 309 302 288 196 271 230 243 325 309 267 173 197 215 196 208 229 207 197 198 214 238 215 246 227 204 229 245 235 267 170 278 272 268 280 164 294 174 167 194 178 207 211 207 198
315 309 297 239 219 208 200 293 313 297 258 142 136 150 198 201 140 191 193 205 239 203 232 206 218 212 238 235 217 291 352 255 273 272 267 269 240 248 177 212 133 120 185 198 180
313 307 288 291 238 223 263 278 287 228 240 160 154 187 185 205 187 155 184 212 227 251 217 274 147 254 232 222 236 295 254 241 252 255 257 239 271 287 54 42 26 140 147 181 175
309 300 271 223 154 244 242 211 224 236 137 157 186 179 194 184 200 189 188 194 205 206 215 215 217 217 243 221 208 212 248 245 222 221 242 103 247 309 359 89 35 359 123 170 169
308 293 270 224 224 230 203 222 245 214 201 49 229 196 204 179 205 192 192 204 221 217 271 208 204 200 188 241 203 219 257 268 292 285 53 165 279 77 52 336 143 155 179 158 167
313 301 236 243 208 197 209 221 220 244 84 237 178 219 208 198 208 197 208 212 205 225 241 212 221 135 235 212 237 248 244 259 276 273 267 282 256 184 136 207 144 120 134 155 165
320 239 205 233 196 187 223 239 236 23 314 254 226 232 194 201 193 193 199 216 216 201 239 315 252 181 166 232 236 256 285 243 233 265 281 265 272 210 147 161 121 136 158 158 166
314 232 210 185 170 206 218 229 237 161 227 274 243 203 280 185 201 197 211 142 220 186 213 240 227 162 169 213 239 190 238 254 284 286 282 277 156 1 357 93 102 133 155 166 168
273 235 166 170 195 218 224 236 226 219 219 242 295 288 203 233 242 257 225 199 206 222 203 222 221 250 221 224 253 290 236 221 246 231 260 276 284 194 149 138 143 140 154 162 161
278 338 210 188 220 217 225 242 168 234 216 216 228 247 240 217 260 244 242 89 162 237 223 217 229 239 244 223 206 242 243 250 270 282 276 278 50 39 296 136 108 144 151 161 160
276 204 169 211 261 292 222 220 206 241 259 236 247 246 212 224 210 213 237 138 202 246 17 344 244 242 252 357 290 194 238 236 229 247 245 244 261 188 133 116 120 150 160 169 167
244 341 353 196 217 229 267 225 220 190 239 208 219 229 219 228 211 222 234 160 207 131 219 238 242 254 261 276 261 263 224 213 236 244 257 261 159 326 86 67 85 163 165 174 177
314 331 256 301 298 244 168 222 248 229 197 216 238 217 225 237 235 227 210 229 230 178 225 231 241 258 270 262 245 259 242 261 251 240 252 263 307 133 102 83 77 159 174 184 187
335 290 276 139 208 238 194 226 223 249 183 287 212 246 223 242 310 25 326 330 341 311 249 226 237 246 249 240 235 233 245 251 237 251 252 265 12 10 70 78 82 164 184 192 190